TimePST,TemperatureF,Dew PointF,Humidity,Sea Level PressureIn,VisibilityMPH,Wind Direction,Wind SpeedMPH,Gust SpeedMPH,PrecipitationIn,Events,Conditions,WindDirDegrees,DateUTC
12:15 AM,19.4,14.0,80,29.80,10.0,SW,3.5,-,N/A,,Partly Cloudy,220,2012-12-14 08:15:00
12:35 AM,19.4,14.0,80,29.80,10.0,Calm,Calm,-,0.01,,Clear,0,2012-12-14 08:35:00
12:55 AM,19.4,12.2,74,29.79,10.0,Calm,Calm,-,0.03,,Clear,0,2012-12-14 08:55:00
1:15 AM,19.4,12.2,74,29.79,10.0,Calm,Calm,-,N/A,,Clear,0,2012-12-14 09:15:00
1:35 AM,17.6,12.2,79,29.78,10.0,NNW,3.5,-,0.01,,Clear,340,2012-12-14 09:35:00
1:55 AM,17.6,12.2,79,29.78,10.0,Calm,Calm,-,0.01,,Partly Cloudy,0,2012-12-14 09:55:00
2:15 AM,19.4,12.2,74,29.78,10.0,Calm,Calm,-,N/A,,Mostly Cloudy,0,2012-12-14 10:15:00
2:35 AM,21.2,15.8,80,29.77,10.0,Calm,Calm,-,N/A,,Overcast,0,2012-12-14 10:35:00
2:55 AM,21.2,15.8,80,29.77,10.0,Calm,Calm,-,N/A,,Overcast,0,2012-12-14 10:55:00
3:15 AM,21.2,15.8,80,29.77,10.0,Calm,Calm,-,N/A,,Overcast,0,2012-12-14 11:15:00
3:35 AM,21.2,15.8,80,29.77,10.0,Calm,Calm,-,N/A,,Overcast,0,2012-12-14 11:35:00
3:55 AM,23.0,17.6,80,29.77,10.0,Calm,Calm,-,N/A,,Overcast,0,2012-12-14 11:55:00
4:15 AM,23.0,17.6,80,29.76,10.0,Calm,Calm,-,N/A,,Overcast,0,2012-12-14 12:15:00
4:35 AM,24.8,17.6,74,29.76,10.0,Calm,Calm,-,N/A,,Overcast,0,2012-12-14 12:35:00
4:55 AM,24.8,17.6,74,29.75,10.0,Calm,Calm,-,N/A,,Overcast,0,2012-12-14 12:55:00
5:15 AM,24.8,17.6,74,29.75,10.0,Calm,Calm,-,N/A,,Overcast,0,2012-12-14 13:15:00
5:35 AM,24.8,17.6,74,29.75,10.0,Calm,Calm,-,N/A,,Overcast,0,2012-12-14 13:35:00
5:55 AM,24.8,17.6,74,29.75,10.0,Calm,Calm,-,N/A,,Overcast,0,2012-12-14 13:55:00
6:15 AM,24.8,17.6,74,29.75,10.0,Calm,Calm,-,N/A,,Overcast,0,2012-12-14 14:15:00
6:35 AM,24.8,17.6,74,29.75,10.0,Calm,Calm,-,N/A,,Overcast,0,2012-12-14 14:35:00
6:55 AM,24.8,17.6,74,29.74,10.0,Calm,Calm,-,N/A,,Overcast,0,2012-12-14 14:55:00
7:15 AM,24.8,17.6,74,29.74,10.0,Calm,Calm,-,N/A,,Overcast,0,2012-12-14 15:15:00
7:35 AM,24.8,17.6,74,29.74,10.0,Calm,Calm,-,N/A,,Overcast,0,2012-12-14 15:35:00
7:55 AM,24.8,17.6,74,29.74,10.0,Calm,Calm,-,N/A,,Overcast,0,2012-12-14 15:55:00
8:15 AM,24.8,17.6,74,29.75,10.0,Calm,Calm,-,N/A,,Overcast,0,2012-12-14 16:15:00
8:35 AM,26.6,19.4,74,29.75,10.0,Calm,Calm,-,N/A,,Overcast,0,2012-12-14 16:35:00
8:55 AM,26.6,19.4,74,29.75,10.0,Calm,Calm,-,N/A,,Overcast,0,2012-12-14 16:55:00
9:15 AM,26.6,19.4,74,29.76,10.0,Calm,Calm,-,N/A,,Overcast,0,2012-12-14 17:15:00
9:35 AM,26.6,19.4,74,29.77,10.0,Calm,Calm,-,0.02,,Mostly Cloudy,0,2012-12-14 17:35:00
9:55 AM,30.2,23.0,75,29.77,10.0,Calm,Calm,-,0.02,,Mostly Cloudy,0,2012-12-14 17:55:00
10:15 AM,28.4,19.4,69,29.76,10.0,ESE,3.5,-,N/A,,Overcast,120,2012-12-14 18:15:00
10:35 AM,28.4,21.2,74,29.76,10.0,Calm,Calm,-,N/A,,Overcast,0,2012-12-14 18:35:00
10:55 AM,28.4,21.2,74,29.76,10.0,Calm,Calm,-,N/A,,Overcast,0,2012-12-14 18:55:00
11:15 AM,30.2,21.2,69,29.75,10.0,Calm,Calm,-,N/A,,Overcast,0,2012-12-14 19:15:00
11:35 AM,30.2,21.2,69,29.75,10.0,Calm,Calm,-,N/A,,Overcast,0,2012-12-14 19:35:00
11:55 AM,30.2,21.2,69,29.75,10.0,Calm,Calm,-,N/A,,Overcast,0,2012-12-14 19:55:00
12:15 PM,30.2,21.2,69,29.74,10.0,Calm,Calm,-,N/A,,Overcast,0,2012-12-14 20:15:00
12:35 PM,30.2,21.2,69,29.75,10.0,Calm,Calm,-,N/A,,Mostly Cloudy,0,2012-12-14 20:35:00
12:55 PM,30.2,21.2,69,29.75,10.0,Calm,Calm,-,N/A,,Mostly Cloudy,0,2012-12-14 20:55:00
1:15 PM,30.2,21.2,69,29.75,10.0,Calm,Calm,-,N/A,,Overcast,0,2012-12-14 21:15:00
1:35 PM,32.0,21.2,64,29.75,10.0,Calm,Calm,-,N/A,,Overcast,0,2012-12-14 21:35:00
2:15 PM,32.0,21.2,64,29.76,10.0,Calm,Calm,-,N/A,,Overcast,0,2012-12-14 22:15:00
2:35 PM,32.0,21.2,64,29.77,10.0,Calm,Calm,-,N/A,,Overcast,0,2012-12-14 22:35:00
2:55 PM,32.0,23.0,69,29.78,10.0,Calm,Calm,-,N/A,,Overcast,0,2012-12-14 22:55:00
3:15 PM,30.2,21.2,69,29.78,7.0,Calm,Calm,-,N/A,,Overcast,0,2012-12-14 23:15:00
3:35 PM,32.0,21.2,64,29.79,5.0,Calm,Calm,-,N/A,,Overcast,0,2012-12-14 23:35:00
3:55 PM,30.2,23.0,75,29.80,9.0,Calm,Calm,-,N/A,,Overcast,0,2012-12-14 23:55:00
4:15 PM,30.2,21.2,69,29.80,6.0,Calm,Calm,-,N/A,,Overcast,0,2012-12-15 00:15:00
4:35 PM,30.2,23.0,75,29.81,5.0,Calm,Calm,-,0.01,,Overcast,0,2012-12-15 00:35:00
4:55 PM,30.2,23.0,75,29.81,5.0,Calm,Calm,-,0.01,,Overcast,0,2012-12-15 00:55:00
5:15 PM,30.2,23.0,75,29.82,8.0,Calm,Calm,-,0.03,,Overcast,0,2012-12-15 01:15:00
5:35 PM,30.2,24.8,80,29.82,7.0,Calm,Calm,-,0.03,,Overcast,0,2012-12-15 01:35:00
5:55 PM,30.2,24.8,80,29.83,9.0,Calm,Calm,-,0.03,,Overcast,0,2012-12-15 01:55:00
6:15 PM,30.2,24.8,80,29.84,7.0,Calm,Calm,-,N/A,,Overcast,0,2012-12-15 02:15:00
6:35 PM,30.2,24.8,80,29.84,9.0,Calm,Calm,-,N/A,,Overcast,0,2012-12-15 02:35:00
6:55 PM,30.2,24.8,80,29.84,10.0,Calm,Calm,-,N/A,,Overcast,0,2012-12-15 02:55:00
7:15 PM,30.2,24.8,80,29.85,10.0,Calm,Calm,-,N/A,,Overcast,0,2012-12-15 03:15:00
7:35 PM,30.2,24.8,80,29.85,8.0,Calm,Calm,-,N/A,,Overcast,0,2012-12-15 03:35:00
7:55 PM,30.2,24.8,80,29.85,10.0,Calm,Calm,-,N/A,,Overcast,0,2012-12-15 03:55:00
8:15 PM,30.2,24.8,80,29.85,8.0,Calm,Calm,-,N/A,,Overcast,0,2012-12-15 04:15:00
8:35 PM,30.2,24.8,80,29.86,9.0,Calm,Calm,-,N/A,,Overcast,0,2012-12-15 04:35:00
8:55 PM,30.2,24.8,80,29.86,8.0,Calm,Calm,-,N/A,,Overcast,0,2012-12-15 04:55:00
9:15 PM,30.2,24.8,80,29.86,8.0,Calm,Calm,-,N/A,,Overcast,0,2012-12-15 05:15:00
9:35 PM,30.2,24.8,80,29.86,7.0,Calm,Calm,-,N/A,,Overcast,0,2012-12-15 05:35:00
9:55 PM,30.2,24.8,80,29.87,6.0,Calm,Calm,-,N/A,,Overcast,0,2012-12-15 05:55:00
10:15 PM,30.2,24.8,80,29.87,5.0,Calm,Calm,-,N/A,,Overcast,0,2012-12-15 06:15:00
10:35 PM,30.2,24.8,80,29.87,5.0,Calm,Calm,-,N/A,,Overcast,0,2012-12-15 06:35:00
10:55 PM,30.2,24.8,80,29.87,3.0,Calm,Calm,-,N/A,,Overcast,0,2012-12-15 06:55:00
11:15 PM,30.2,24.8,80,29.88,4.0,Calm,Calm,-,N/A,,Overcast,0,2012-12-15 07:15:00
11:35 PM,30.2,24.8,80,29.88,5.0,Calm,Calm,-,N/A,,Overcast,0,2012-12-15 07:35:00
11:55 PM,30.2,24.8,80,29.88,5.0,Calm,Calm,-,N/A,,Overcast,0,2012-12-15 07:55:00